[[{"header":{"parameterUnit":"m.s-1","parameterCategory":2,"la1":30.2991,"la2":30.254,"lo1":-89.0895,"lo2":-89.0444,"dy":0.0017,"dx":0.0017,"nx":28,"ny":28,"refTime":"2024-07-20T03:00:00:Z","depth":"0","parameterNumber":2,"parameterNumberName":"U-component_of_CURRENTS"},"data":[0,0,0,0,0,0,0,0,0,0,0,0,0,0,0,0,0,0,0,0,0,0,0,0,0,0,0,0,0,0,0,0,0,0,0,0,0,0,0,0,0,0,0,0,0,0,0,0,0,0,0,0,0,0,0,0,0,0,0.3322,0.3322,0,0.3332,0.3332,0.3332,0.331,0.3309,0.3309,0.3308,0.3331,0.3332,0.3333,0,0,0,0,0,0,0,0,0,0,0,0,0,0.333,0.333,0.3322,0.3322,0.3322,0.3332,0.3332,0.3332,0.331,0.3309,0.3309,0.3308,0.333,0.3332,0.3333,0,0,0,0,0,0,0,0,0,0,0,0,0,0.333,0.3329,0.3322,0.3314,0.3313,0.3332,0.3332,0.3332,0.331,0.3309,0.3308,0.3308,0.333,0.3332,0.3333,0.3361,0,0,0.3339,0.3339,0,0,0,0,0,0,0,0,0.333,0.333,0.3314,0.3314,0.3314,0.332,0.3343,0.3343,0.331,0.331,0.3308,0.3307,0.333,0.3332,0.3333,0.3362,0.3363,0.3339,0.334,0.334,0.3341,0,0,0,0,0,0,0,0.333,0.333,0.3324,0.3315,0.3314,0.3326,0.3324,0.3343,0.3323,0.331,0.3308,0.3312,0.333,0.3332,0.3334,0.3363,0.3339,0.334,0.3341,0.3342,0.3527,0.3531,0,0,0,0,0,0,0.3331,0.3329,0.3324,0.3325,0.3322,0.3326,0.3325,0.3318,0.3323,0.3323,0.3313,0.3311,0.3329,0.3332,0.3334,0.3455,0.334,0.3342,0.3343,0.3523,0.3528,0.3532,0,0,0,0,0,0,0.3331,0.333,0.3323,0.3329,0.3329,0.3327,0.3319,0.3318,0.3326,0.3326,0.3326,0.3322,0.3328,0.3332,0.338,0.3452,0.3343,0.3344,0.3519,0.3525,0.353,0.3641,0,0,0,0,0,0,0.3331,0.3329,0.3331,0.3329,0.3329,0.3349,0.332,0.3319,0.333,0.3328,0.3334,0.3335,0.3328,0.3377,0.3381,0.3453,0.3346,0.3514,0.3521,0.3528,0.3632,0.365,0.3665,0,0,0,0,0,0.3331,0.3336,0.3331,0.3331,0.3329,0.335,0.3352,0.3346,0.3331,0.3347,0.3361,0.3335,0.3428,0.3381,0.3385,0.3459,0.351,0.3519,0.3528,0.3625,0.3647,0.3665,0,0,0,0,0,0,0.3341,0.3334,0.3328,0.3331,0.3347,0.3347,0.3359,0.3356,0.3377,0.3377,0.3369,0.3373,0.3453,0.3441,0.339,0.3539,0.3472,0.3481,0.3545,0.3564,0.358,0.3624,0.3347,0,0,0,0,0,0.3344,0.3343,0.3349,0.3353,0.3361,0.3363,0.3371,0.3373,0.3388,0.3394,0.34,0.3431,0.3494,0.3512,0.3551,0.3613,0.3656,0.3671,0.3688,0.3701,0.3743,0.3859,0.389,0.3561,0.3561,0.3561,0,0,0.3346,0.3346,0.3343,0.3355,0.3362,0.3409,0.3365,0.3388,0.3449,0.3397,0.3471,0.3485,0.3526,0.3613,0.3648,0.3607,0.3822,0.3712,0.3723,0.3759,0.3872,0.3904,0.3932,0.3567,0.3566,0.3565,0,0,0.3364,0.3354,0.3367,0.3396,0.342,0.3437,0.3449,0.3464,0.3492,0.356,0.3563,0.3628,0.3676,0.3742,0.378,0.3912,0.3909,0.3912,0.4021,0.4132,0.416,0.4185,0.4294,0.4327,0.3912,0.3913,0.3913,0,0.3372,0.3393,0.3379,0.3422,0.3464,0.3459,0.3519,0.3561,0.3594,0.364,0.3602,0.374,0.3762,0.3914,0.3968,0.3954,0.4003,0.3934,0.4154,0.4179,0.4203,0.4308,0.4344,0.3919,0.3918,0.3918,0.3917,0,0.3411,0.3447,0.3464,0.3523,0.3568,0.3614,0.3677,0.3725,0.375,0.3791,0.3916,0.3949,0.403,0.4057,0.4058,0.4243,0.4221,0.4163,0.4099,0.4243,0.4344,0.4379,0.3928,0.3926,0.3924,0.3922,0,0,0.3388,0.3474,0.3484,0.354,0.363,0.3669,0.3793,0.3899,0.3985,0.4031,0.4155,0.4271,0.4259,0.4307,0.4309,0.4411,0.4625,0.4363,0.4366,0.4464,0.488,0.4732,0.4756,0.4589,0.4595,0.4601,0.4886,0,0.3431,0.3525,0.3568,0.3692,0.3755,0.3823,0.3939,0.404,0.4118,0.4233,0.4308,0.4418,0.4365,0.4407,0.4507,0.4603,0.4722,0.4554,0.4733,0.474,0.4585,0.4793,0.4466,0.4681,0.492,0.4926,0.493,0,0.3459,0.3529,0.3644,0.3787,0.3821,0.3901,0.4076,0.4181,0.4351,0.4412,0.4523,0.4566,0.4753,0.4662,0.4918,0.4805,0.4874,0.4931,0.4941,0.4794,0.4659,0.4576,0.4736,0.4582,0.4984,0.498,0.4976,0,0.3447,0.3583,0.3677,0.373,0.3891,0.3967,0.4058,0.4225,0.4347,0.4532,0.4636,0.4794,0.4914,0.5026,0.5127,0.5048,0.5389,0.5283,0.5226,0.5216,0.4973,0.4929,0.4998,0.5491,0.5491,0.549,0.5489,0,0.3478,0.3555,0.3673,0.3734,0.387,0.3972,0.4135,0.4246,0.444,0.4597,0.4716,0.4864,0.5015,0.5191,0.5237,0.5356,0.5482,0.532,0.5305,0.5001,0.4958,0.4835,0.4771,0.55,0.5498,0.5496,0.5494,0,0.3461,0.353,0.3659,0.3821,0.3867,0.397,0.4174,0.4298,0.4471,0.4689,0.4764,0.5007,0.5217,0.5346,0.5567,0.551,0.5449,0.5619,0.5251,0.5184,0.4908,0.4861,0.4844,0.4713,0.5619,0.5617,0.5616,0,0.3459,0.352,0.3704,0.3783,0.3858,0.4006,0.4113,0.4295,0.4435,0.4753,0.4864,0.5138,0.528,0.5547,0.5502,0.5585,0.544,0.533,0.5115,0.4918,0.4858,0.4705,0.4585,0.4861,0.4854,0.4848,0.4843,0,0.3496,0.3561,0.368,0.3829,0.3944,0.4076,0.4232,0.4334,0.4558,0.4718,0.4951,0.509,0.5292,0.5206,0.5283,0.5273,0.5011,0.5205,0.5107,0.4387,0.4126,0.3977,0.4664,0.4789,0.4794,0.4798,0.4801,0.4804,0.354,0.3625,0.3776,0.3902,0.4019,0.4124,0.4164,0.4323,0.4483,0.4621,0.4847,0.4889,0.4889,0.4919,0.4896,0.4592,0.4677,0.4386,0.4394,0.4297,0.4009,0.4581,0.4596,0.46,0.4604,0.4607,0.461,0,0.3613,0.3699,0.3831,0.3964,0.4022,0.4098,0.4223,0.4204,0.4271,0.4392,0.4491,0.4382,0.4255,0.4219,0.3975,0.3791,0.3629,0.3686,0.3394,0.3355,0.3954,0.3749,0.3447,0.3447,0.3447,0.3447,0.3448,0.3448,0.3674,0.3796,0.3842,0.3924,0.3973,0.3953,0.3965,0.3946,0.3969,0.3848,0.3707,0.3717,0.3742,0.3578,0.3309,0.3222,0.3009,0.2812,0.2947,0.3329,0.3393,0.3454,0.3247,0.2845,0.2844,0.2122,0.2117,0.2112]},{"header":{"parameterUnit":"m.s-1","parameterCategory":2,"la1":30.2991,"la2":30.254,"lo1":-89.0895,"lo2":-89.0444,"dy":0.0017,"dx":0.0017,"nx":28,"ny":28,"refTime":"2024-07-20T03:00:00:Z","depth":"0","parameterNumber":3,"parameterNumberName":"V-component_of_CURRENTS"},"data":[0,0,0,0,0,0,0,0,0,0,0,0,0,0,0,0,0,0,0,0,0,0,0,0,0,0,0,0,0,0,0,0,0,0,0,0,0,0,0,0,0,0,0,0,0,0,0,0,0,0,0,0,0,0,0,0,0,0,0.0162,0.0161,0,0.0109,0.0109,0.0108,0.0071,0.007,0.007,0.007,0.0014,0.0013,0.0011,0,0,0,0,0,0,0,0,0,0,0,0,0,0.0197,0.0196,0.0162,0.0161,0.0161,0.011,0.0109,0.0108,0.0071,0.007,0.007,0.007,0.0014,0.0013,0.0011,0,0,0,0,0,0,0,0,0,0,0,0,0,0.0166,0.0196,0.0162,0.0137,0.0134,0.011,0.0109,0.0108,0.0071,0.007,0.007,0.007,0.0015,0.0013,0.0011,0.0005,0,0,0.0005,0.0004,0,0,0,0,0,0,0,0,0.0168,0.0164,0.0141,0.0138,0.0135,0.0097,0.0101,0.0074,0.0071,0.0094,0.007,0.007,0.0042,0.0038,0.0028,0.0003,0.0,0.0005,0.0004,0.0003,0.0002,0,0,0,0,0,0,0,0.017,0.0166,0.014,0.014,0.0137,0.0117,0.0112,0.0095,0.0069,0.0091,0.0089,0.0085,0.0041,0.0029,0.0026,-0.0,0.0005,0.0003,0.0002,0.0001,-0.0016,-0.0016,0,0,0,0,0,0,0.0181,0.0169,0.0142,0.0138,0.0152,0.0117,0.0112,0.0109,0.007,0.0064,0.0085,0.0083,0.0033,0.0028,0.0024,0.0049,0.0003,0.0001,0.0,-0.0017,-0.0016,-0.0015,0,0,0,0,0,0,0.0182,0.0179,0.0144,0.0153,0.0147,0.0117,0.0114,0.0108,0.0101,0.0065,0.0059,0.0085,0.0033,0.0027,0.0016,0.0046,0.0,-0.0001,-0.0018,-0.0017,-0.0016,0.0079,0,0,0,0,0,0,0.0183,0.0179,0.0182,0.0154,0.0147,0.014,0.0114,0.0107,0.0099,0.0096,0.0063,0.0057,0.0032,0.0019,0.0014,0.0042,-0.0003,-0.0019,-0.0017,-0.0016,0.0075,0.0083,0.009,0,0,0,0,0,0.0184,0.0193,0.0183,0.018,0.0152,0.0141,0.0136,0.0112,0.01,0.0103,0.0079,0.0058,0.0024,0.0018,0.0012,0.004,-0.0019,-0.0018,-0.0016,0.0071,0.0081,0.009,0,0,0,0,0,0,0.0207,0.0189,0.0178,0.0179,0.0166,0.0135,0.0135,0.0119,0.0101,0.0098,0.0064,0.0057,0.006,0.0032,0.0027,0.0037,0.0,0.0,0.0069,0.0077,0.0085,0.0124,-0.0005,0,0,0,0,0,0.0214,0.0218,0.0195,0.0197,0.0192,0.0165,0.0157,0.0142,0.0122,0.0114,0.0091,0.0069,0.0061,0.0055,0.0037,0.0041,0.004,0.0055,0.0063,0.0069,0.0096,0.0101,0.0112,-0.001,-0.001,-0.001,0,0,0.0222,0.0214,0.0215,0.0203,0.0188,0.02,0.016,0.0154,0.0172,0.0111,0.0124,0.0093,0.0067,0.0074,0.0073,0.0056,0.0106,0.0071,0.0077,0.0101,0.0104,0.0116,0.0127,-0.0009,-0.0009,-0.001,0,0,0.0247,0.0234,0.0248,0.0246,0.0234,0.0223,0.0227,0.0202,0.0199,0.0201,0.0169,0.0159,0.0135,0.013,0.0125,0.0162,0.0144,0.015,0.0225,0.0229,0.0239,0.0249,0.0281,0.0293,0.0156,0.0156,0.0156,0,0.0258,0.0278,0.025,0.0268,0.0283,0.0242,0.0273,0.0264,0.0241,0.0255,0.0217,0.0206,0.017,0.0207,0.0214,0.0184,0.0189,0.0195,0.0241,0.025,0.0258,0.0289,0.0301,0.0161,0.016,0.016,0.0159,0,0.0297,0.0317,0.0327,0.0345,0.0353,0.0371,0.0363,0.0372,0.0359,0.0351,0.037,0.032,0.0322,0.0301,0.0268,0.0314,0.0302,0.0251,0.0225,0.0277,0.0305,0.0316,0.0168,0.0166,0.0164,0.0163,0,0,0.0322,0.0352,0.0359,0.0396,0.0403,0.0422,0.0456,0.0488,0.0534,0.0492,0.0555,0.0511,0.0481,0.0473,0.0428,0.0422,0.0473,0.0367,0.0365,0.0414,0.0511,0.0451,0.0456,0.0426,0.0428,0.043,0.0516,0,0.037,0.0434,0.0435,0.0511,0.0551,0.0547,0.0594,0.0614,0.062,0.0664,0.0622,0.0651,0.0549,0.0562,0.0538,0.0495,0.0502,0.0457,0.0442,0.0443,0.0393,0.0466,0.0431,0.0499,0.0526,0.0527,0.0529,0,0.0418,0.0462,0.0545,0.0625,0.0643,0.0684,0.0774,0.0809,0.0847,0.0854,0.0861,0.0829,0.0836,0.0731,0.0695,0.0672,0.061,0.056,0.0561,0.0482,0.0401,0.0446,0.0517,0.0328,0.0544,0.0543,0.0542,0,0.0473,0.0547,0.0628,0.0651,0.0724,0.0777,0.0821,0.087,0.0939,0.0989,0.1053,0.1015,0.1051,0.0946,0.0832,0.0774,0.0794,0.0698,0.0595,0.0591,0.0549,0.0538,0.0448,0.0686,0.0685,0.0685,0.0685,0,0.0537,0.0602,0.0666,0.0713,0.0832,0.0852,0.0981,0.1014,0.1102,0.1228,0.1163,0.1271,0.1106,0.1087,0.0928,0.0815,0.0872,0.0644,0.0614,0.058,0.0571,0.0391,0.0295,0.0688,0.0688,0.0687,0.0687,0,0.059,0.0623,0.0728,0.0823,0.0861,0.0951,0.1091,0.1189,0.1253,0.1427,0.1464,0.15,0.1483,0.1309,0.1185,0.098,0.0737,0.0788,0.0773,0.0737,0.0404,0.0315,0.0221,0.0149,0.0684,0.0683,0.0682,0,0.0622,0.068,0.0809,0.089,0.0943,0.1072,0.1172,0.1256,0.138,0.1589,0.1698,0.1747,0.1823,0.1607,0.1255,0.0988,0.079,0.0745,0.06,0.0412,0.0292,0.0212,0.0153,0.0601,0.06,0.0599,0.0598,0,0.0702,0.0746,0.0841,0.0999,0.112,0.1263,0.1417,0.1535,0.1684,0.1863,0.2107,0.2193,0.1994,0.1711,0.1295,0.1077,0.0589,0.071,0.0524,0.0238,0.0143,0.0049,0.0535,0.0588,0.0589,0.0589,0.059,0.059,0.077,0.0854,0.0981,0.1134,0.1278,0.1459,0.1592,0.1789,0.2033,0.2325,0.239,0.2554,0.2075,0.1512,0.1199,0.0527,0.0548,0.0285,0.0208,0.0156,0.0029,0.05,0.0492,0.0492,0.0492,0.0493,0.0493,0,0.0865,0.0962,0.1109,0.1303,0.1472,0.1523,0.1766,0.1928,0.2241,0.2515,0.274,0.2552,0.2007,0.1406,0.0491,0.0067,-0.0068,-0.0146,-0.0268,-0.0295,0.0136,0.0069,-0.0041,-0.0041,-0.0041,-0.0041,-0.0041,-0.004,0.0925,0.1078,0.1153,0.1438,0.1574,0.1796,0.1934,0.22,0.2423,0.2732,0.2804,0.2813,0.2259,0.0795,-0.0187,-0.0386,-0.063,-0.0703,-0.0794,-0.0529,-0.0496,-0.0464,-0.0552,-0.079,-0.0791,-0.1206,-0.1211,-0.1214]}],[{"header":{"parameterUnit":"m.s-1","parameterCategory":2,"la1":30.2991,"la2":30.254,"lo1":-89.0895,"lo2":-89.0444,"dy":0.0017,"dx":0.0017,"nx":28,"ny":28,"refTime":"2024-07-20T03:00:00:Z","depth":"2","parameterNumber":2,"parameterNumberName":"U-component_of_CURRENTS"},"data":[0,0,0,0,0,0,0,0,0,0,0,0,0,0,0,0,0,0,0,0,0,0,0,0,0,0,0,0,0,0,0,0,0,0,0,0,0,0,0,0,0,0,0,0,0,0,0,0,0,0,0,0,0,0,0,0,0,0,0.287,0.287,0,0.2871,0.2871,0.2871,0.2861,0.2861,0.2861,0.2861,0.2872,0.2872,0.2873,0,0,0,0,0,0,0,0,0,0,0,0,0,0.2876,0.2876,0.287,0.287,0.287,0.2871,0.2871,0.2871,0.2861,0.2861,0.2861,0.2861,0.2872,0.2872,0.2873,0,0,0,0,0,0,0,0,0,0,0,0,0,0.2873,0.2876,0.287,0.2867,0.2867,0.2871,0.2871,0.2871,0.2861,0.2861,0.2861,0.2861,0.2872,0.2872,0.2873,0.2879,0,0,0.2875,0.2875,0,0,0,0,0,0,0,0,0.2873,0.2873,0.2867,0.2867,0.2867,0.2867,0.2877,0.2875,0.2861,0.2861,0.2861,0.2861,0.2873,0.2873,0.2871,0.288,0.2881,0.2875,0.2875,0.2875,0.2876,0,0,0,0,0,0,0,0.2873,0.2873,0.2868,0.2867,0.2867,0.2872,0.2871,0.2877,0.2866,0.2861,0.2861,0.2864,0.2873,0.287,0.2871,0.2881,0.2875,0.2875,0.2876,0.2876,0.297,0.2972,0,0,0,0,0,0,0.2876,0.2873,0.2868,0.2868,0.2872,0.2872,0.287,0.2866,0.2866,0.2867,0.2864,0.2864,0.287,0.2871,0.2872,0.2946,0.2875,0.2876,0.2876,0.2968,0.2971,0.2973,0,0,0,0,0,0,0.2876,0.2876,0.2868,0.2873,0.2872,0.2872,0.2867,0.2866,0.2877,0.2869,0.2869,0.2878,0.2869,0.2871,0.2901,0.2944,0.2876,0.2877,0.2966,0.2969,0.2972,0.3052,0,0,0,0,0,0,0.2876,0.2875,0.288,0.2873,0.2872,0.2888,0.2867,0.2866,0.2879,0.2879,0.288,0.288,0.2869,0.2901,0.2902,0.2943,0.2877,0.2963,0.2967,0.2971,0.3046,0.3057,0.3067,0,0,0,0,0,0.2876,0.2881,0.288,0.2881,0.2876,0.2889,0.289,0.2887,0.288,0.2894,0.29,0.2881,0.2928,0.2903,0.2904,0.2946,0.2961,0.2966,0.2971,0.3042,0.3055,0.3066,0,0,0,0,0,0,0.2886,0.2881,0.288,0.2882,0.2894,0.2888,0.2899,0.2898,0.2912,0.2914,0.2903,0.2904,0.2952,0.2938,0.2911,0.2987,0.2944,0.2949,0.2998,0.301,0.302,0.3037,0.2878,0,0,0,0,0,0.2892,0.2893,0.2895,0.29,0.2907,0.2907,0.2913,0.2915,0.2922,0.2928,0.2928,0.294,0.297,0.298,0.2996,0.303,0.3059,0.3061,0.3072,0.308,0.3097,0.32,0.3222,0.2989,0.2989,0.2989,0,0,0.2895,0.2895,0.2894,0.2904,0.2908,0.293,0.291,0.2928,0.2959,0.2928,0.2968,0.2976,0.2989,0.3036,0.3055,0.3029,0.3159,0.3086,0.3093,0.3106,0.3208,0.323,0.3251,0.2992,0.2992,0.2991,0,0,0.2905,0.2906,0.2913,0.2927,0.2945,0.2954,0.2966,0.2973,0.2992,0.3029,0.3028,0.3072,0.3085,0.3121,0.3139,0.3217,0.3214,0.3209,0.3269,0.337,0.339,0.3408,0.3465,0.3488,0.3209,0.3209,0.3209,0,0.2914,0.2919,0.2921,0.2939,0.2961,0.297,0.3,0.3024,0.3044,0.3074,0.3055,0.3127,0.314,0.3222,0.3251,0.3244,0.3277,0.3219,0.3385,0.3404,0.3421,0.3474,0.3499,0.3214,0.3213,0.3213,0.3212,0,0.2927,0.2942,0.2951,0.298,0.3012,0.3034,0.3075,0.3112,0.3133,0.3154,0.3232,0.3254,0.3305,0.3313,0.3306,0.343,0.3405,0.3391,0.3354,0.345,0.3499,0.3523,0.322,0.3218,0.3217,0.3216,0,0,0.2916,0.2952,0.2957,0.2981,0.3035,0.3059,0.3137,0.3205,0.3264,0.3289,0.3373,0.3428,0.3439,0.3462,0.3464,0.3536,0.3688,0.3512,0.3515,0.3569,0.3883,0.3738,0.3749,0.3699,0.3704,0.3708,0.3865,0,0.2928,0.2965,0.2991,0.3048,0.3075,0.3129,0.32,0.327,0.3334,0.3416,0.3465,0.3541,0.3497,0.3539,0.3609,0.3689,0.3755,0.3645,0.3783,0.3786,0.3648,0.3774,0.3447,0.3548,0.3888,0.3891,0.3894,0,0.2929,0.2959,0.3006,0.3087,0.3106,0.3154,0.3283,0.3349,0.3475,0.3529,0.3613,0.3651,0.3783,0.3724,0.3904,0.3834,0.3869,0.3901,0.3908,0.3763,0.3686,0.3511,0.3578,0.3934,0.393,0.3927,0.3925,0,0.2905,0.2973,0.3011,0.3033,0.3124,0.318,0.3252,0.338,0.3465,0.362,0.3719,0.3823,0.3928,0.4002,0.4066,0.4015,0.4237,0.4184,0.4072,0.4061,0.3805,0.3763,0.4304,0.4304,0.4303,0.4303,0.4303,0,0.2892,0.2925,0.3003,0.3013,0.3104,0.3177,0.3299,0.3388,0.354,0.3652,0.3782,0.3889,0.4009,0.4129,0.4145,0.4191,0.4317,0.4116,0.4112,0.3819,0.3778,0.4121,0.4098,0.4309,0.4308,0.4306,0.4305,0,0.285,0.2887,0.2946,0.3044,0.3083,0.3158,0.3326,0.3403,0.3578,0.3746,0.3813,0.4005,0.4161,0.4244,0.4379,0.4305,0.4353,0.4317,0.3939,0.3886,0.4084,0.4063,0.4241,0.4237,0.4235,0.4232,0.423,0,0.2825,0.2839,0.2953,0.2995,0.3041,0.3162,0.3231,0.3398,0.3485,0.3787,0.3846,0.4075,0.4149,0.4301,0.4245,0.4259,0.4332,0.3924,0.3762,0.4109,0.4089,0.4072,0.4055,0.346,0.3452,0.3445,0.344,0,0.2794,0.2835,0.2893,0.2962,0.3037,0.3124,0.3237,0.3299,0.3496,0.3643,0.3782,0.3875,0.4043,0.3887,0.3927,0.3877,0.3897,0.3784,0.4312,0.3505,0.338,0.3356,0.3365,0.338,0.3386,0.3391,0.3394,0.3396,0.2784,0.2829,0.2883,0.2958,0.3025,0.3046,0.3044,0.3149,0.3239,0.3368,0.3546,0.3587,0.3627,0.351,0.3403,0.3331,0.3587,0.3395,0.3414,0.344,0.33,0.3175,0.311,0.3114,0.3117,0.3121,0.3123,0,0.2775,0.2823,0.2864,0.2914,0.2895,0.297,0.3005,0.293,0.2934,0.3092,0.3155,0.2931,0.286,0.2935,0.2724,0.2691,0.2653,0.2579,0.25,0.2562,0.2616,0.2431,0.2013,0.2009,0.2005,0.2002,0,0,0.2772,0.2797,0.2812,0.277,0.2775,0.2693,0.2662,0.2557,0.2579,0.252,0.2532,0.2752,0.2855,0.241,0.2336,0.2136,0.2333,0.2053,0.2951,0.2922,0.2972,0.3101,0.2888,0,0,0,0,0]},{"header":{"parameterUnit":"m.s-1","parameterCategory":2,"la1":30.2991,"la2":30.254,"lo1":-89.0895,"lo2":-89.0444,"dy":0.0017,"dx":0.0017,"nx":28,"ny":28,"refTime":"2024-07-20T03:00:00:Z","depth":"2","parameterNumber":3,"parameterNumberName":"V-component_of_CURRENTS"},"data":[0,0,0,0,0,0,0,0,0,0,0,0,0,0,0,0,0,0,0,0,0,0,0,0,0,0,0,0,0,0,0,0,0,0,0,0,0,0,0,0,0,0,0,0,0,0,0,0,0,0,0,0,0,0,0,0,0,0,0.007,0.007,0,0.0025,0.0024,0.0024,-0.0007,-0.0007,-0.0007,-0.0008,-0.0057,-0.0058,-0.0059,0,0,0,0,0,0,0,0,0,0,0,0,0,0.0102,0.0101,0.007,0.0069,0.0069,0.0025,0.0024,0.0023,-0.0007,-0.0007,-0.0007,-0.0008,-0.0056,-0.0058,-0.0059,0,0,0,0,0,0,0,0,0,0,0,0,0,0.0075,0.0101,0.007,0.0049,0.0047,0.0025,0.0024,0.0023,-0.0007,-0.0007,-0.0007,-0.0008,-0.0056,-0.0057,-0.0059,-0.0066,0,0,-0.0064,-0.0065,0,0,0,0,0,0,0,0,0.0076,0.0073,0.0053,0.005,0.0048,0.0015,0.0017,-0.0006,-0.0007,0.0013,-0.0008,-0.0008,-0.0032,-0.0036,-0.0045,-0.0068,-0.007,-0.0065,-0.0066,-0.0066,-0.0067,0,0,0,0,0,0,0,0.0078,0.0075,0.0051,0.0052,0.0049,0.0032,0.0028,0.0012,-0.0009,0.0011,0.0009,0.0005,-0.0034,-0.0043,-0.0046,-0.0071,-0.0065,-0.0066,-0.0067,-0.0068,-0.0087,-0.0087,0,0,0,0,0,0,0.0087,0.0077,0.0053,0.005,0.0063,0.0032,0.0028,0.0025,-0.0009,-0.0014,0.0005,0.0004,-0.004,-0.0044,-0.0048,-0.0032,-0.0066,-0.0068,-0.0069,-0.0088,-0.0087,-0.0087,0,0,0,0,0,0,0.0088,0.0085,0.0054,0.0063,0.0058,0.0032,0.0029,0.0024,0.0018,-0.0013,-0.0018,0.0005,-0.0041,-0.0046,-0.0052,-0.0035,-0.0069,-0.007,-0.0088,-0.0088,-0.0087,-0.0015,0,0,0,0,0,0,0.0089,0.0086,0.0088,0.0064,0.0058,0.0051,0.0029,0.0024,0.0017,0.0014,-0.0015,-0.002,-0.0041,-0.0049,-0.0054,-0.0038,-0.0072,-0.0089,-0.0088,-0.0087,-0.0018,-0.0012,-0.0007,0,0,0,0,0,0.009,0.0097,0.0089,0.0086,0.0062,0.0051,0.0047,0.0027,0.0017,0.002,0.0002,-0.0019,-0.0047,-0.005,-0.0056,-0.004,-0.009,-0.0088,-0.0087,-0.0021,-0.0013,-0.0007,0,0,0,0,0,0,0.0108,0.0094,0.0084,0.0085,0.0073,0.0047,0.0046,0.0033,0.002,0.0017,-0.0012,-0.0017,-0.0019,-0.004,-0.0043,-0.0043,-0.0072,-0.0072,-0.0019,-0.0013,-0.0007,0.0014,-0.0073,0,0,0,0,0,0.0115,0.0118,0.0098,0.01,0.0095,0.0072,0.0065,0.0053,0.0037,0.0031,0.0011,-0.0008,-0.0019,-0.0023,-0.0042,-0.0039,-0.0062,-0.0033,-0.0027,-0.0022,-0.0009,-0.0026,-0.0021,-0.0083,-0.0083,-0.0083,0,0,0.012,0.0114,0.0114,0.0104,0.0092,0.0101,0.0068,0.0062,0.0077,0.0028,0.0038,0.0008,-0.0016,-0.0014,-0.0016,-0.0026,-0.0019,-0.0021,-0.0016,-0.0006,-0.0025,-0.0018,-0.0013,-0.0082,-0.0082,-0.0082,0,0,0.0141,0.013,0.0142,0.014,0.0129,0.0121,0.0124,0.0102,0.01,0.0101,0.0072,0.0057,0.0037,0.0026,0.0019,0.0045,0.0009,0.0036,0.0089,0.0072,0.0077,0.0081,0.0054,0.0055,0.0044,0.0044,0.0044,0,0.0149,0.0166,0.0143,0.0158,0.0171,0.0137,0.0162,0.0154,0.0135,0.0143,0.0114,0.0087,0.0059,0.0075,0.0081,0.006,0.004,0.0066,0.0081,0.0084,0.0088,0.0058,0.0059,0.0048,0.0047,0.0047,0.0047,0,0.0182,0.0198,0.0206,0.0222,0.023,0.0244,0.0237,0.0243,0.0231,0.0219,0.0218,0.0172,0.016,0.0144,0.0121,0.0135,0.0109,0.0087,0.0067,0.0099,0.0065,0.0064,0.0053,0.0052,0.0051,0.005,0,0,0.0201,0.0226,0.0233,0.0265,0.0271,0.0288,0.0314,0.0335,0.0368,0.0323,0.0356,0.0311,0.0274,0.0262,0.0222,0.0204,0.0198,0.0162,0.0159,0.0141,0.0155,0.0111,0.0105,0.018,0.018,0.018,0.012,0,0.024,0.0295,0.0296,0.0362,0.0395,0.0391,0.0429,0.0441,0.0437,0.0455,0.0399,0.0407,0.0324,0.0325,0.0288,0.0235,0.0201,0.0216,0.0122,0.0119,0.0081,0.0105,0.014,0.0088,0.0119,0.0119,0.0119,0,0.028,0.0318,0.0388,0.0459,0.0474,0.051,0.0579,0.0608,0.0615,0.0611,0.0584,0.0537,0.0508,0.043,0.0333,0.0348,0.0256,0.0195,0.0191,0.0127,0.0074,0.0061,0.0085,0.0117,0.0118,0.0118,0.0118,0,0.0325,0.0391,0.0459,0.048,0.0543,0.0586,0.0626,0.0656,0.0713,0.0716,0.0755,0.0671,0.0669,0.0541,0.0393,0.0373,0.0278,0.0235,0.0099,0.0094,0.0095,0.0089,0.0154,0.0154,0.0155,0.0155,0.0155,0,0.0378,0.0433,0.0491,0.0529,0.0639,0.0654,0.0765,0.0788,0.0841,0.0939,0.0844,0.0892,0.0701,0.0615,0.0445,0.0275,0.0311,0.0116,0.0082,0.0118,0.0116,0.0119,0.0115,0.0152,0.0153,0.0153,0.0154,0,0.042,0.0449,0.054,0.0623,0.0663,0.0746,0.0876,0.0955,0.0992,0.1119,0.1136,0.1077,0.0972,0.0755,0.0559,0.0373,0.0197,0.0117,0.0163,0.0135,0.0007,0.0008,-0.0028,-0.003,-0.0031,-0.0033,-0.0034,0,0.0445,0.0493,0.0615,0.0693,0.0739,0.0863,0.0957,0.1026,0.1126,0.1247,0.1321,0.1253,0.1214,0.0882,0.0558,0.0246,0.0196,0.0053,0.0011,0.0021,-0.0009,-0.0005,-0.0002,0.0037,0.0037,0.0036,0.0036,0,0.0506,0.0548,0.0635,0.0786,0.0902,0.1049,0.1189,0.1288,0.1403,0.1502,0.1604,0.1578,0.1282,0.0967,0.0528,0.0313,0.0101,0.0033,0.0056,0.0072,0.0076,0.0049,0.0051,0.0033,0.0033,0.0033,0.0033,0.0034,0.0563,0.0643,0.0757,0.0909,0.1047,0.1228,0.1356,0.1506,0.1677,0.1824,0.1784,0.1743,0.1394,0.083,0.0467,0.0082,0.0093,-0.006,-0.0055,-0.0051,-0.0038,-0.0038,-0.0101,-0.0102,-0.0102,-0.0102,-0.0103,0,0.0647,0.074,0.0875,0.1062,0.1214,0.128,0.1511,0.163,0.1833,0.1922,0.1966,0.1628,0.1283,0.0887,0.0325,-0.0023,-0.0039,-0.014,-0.0076,-0.007,-0.0065,-0.0051,-0.0119,-0.012,-0.0121,-0.0122,0,0,0.0699,0.0841,0.0911,0.1174,0.1304,0.1526,0.1663,0.1823,0.1928,0.199,0.1951,0.1848,0.139,0.0975,0.0521,0.0205,0.0143,0.0136,0.0186,0.0321,0.033,0.0016,0.0048,0,0,0,0,0]}],[{"header":{"parameterUnit":"m.s-1","parameterCategory":2,"la1":30.2991,"la2":30.254,"lo1":-89.0895,"lo2":-89.0444,"dy":0.0017,"dx":0.0017,"nx":28,"ny":28,"refTime":"2024-07-20T03:00:00:Z","depth":"4","parameterNumber":2,"parameterNumberName":"U-component_of_CURRENTS"},"data":[0,0,0,0,0,0,0,0,0,0,0,0,0,0,0,0,0,0,0,0,0,0,0,0,0,0,0,0,0,0,0,0,0,0,0,0,0,0,0,0,0,0,0,0,0,0,0,0,0,0,0,0,0,0,0,0,0,0,0.1855,0.1855,0,0.1893,0.1893,0.1893,0.1939,0.194,0.1941,0.1942,0.1996,0.1996,0.1997,0,0,0,0,0,0,0,0,0,0,0,0,0,0.1814,0.1814,0.1855,0.1855,0.1856,0.1892,0.1893,0.1893,0.1939,0.194,0.1941,0.1942,0.1996,0.1996,0.1997,0,0,0,0,0,0,0,0,0,0,0,0,0,0.1838,0.1814,0.1855,0.1885,0.1888,0.1892,0.1893,0.1893,0.1939,0.194,0.1941,0.1943,0.1995,0.1996,0.1997,0.1975,0,0,0.2,0.2,0,0,0,0,0,0,0,0,0.1836,0.1839,0.188,0.1883,0.1886,0.1914,0.1898,0.1922,0.1938,0.1917,0.1942,0.1943,0.197,0.1973,0.1974,0.1978,0.198,0.2,0.2001,0.2001,0.2001,0,0,0,0,0,0,0,0.1834,0.1837,0.1868,0.188,0.1885,0.1894,0.1898,0.1903,0.1934,0.1919,0.1923,0.193,0.1972,0.1973,0.1976,0.1981,0.2,0.2001,0.2001,0.2002,0.2087,0.2089,0,0,0,0,0,0,0.1833,0.1836,0.1867,0.1869,0.1867,0.1894,0.1899,0.1902,0.1934,0.1941,0.1929,0.1932,0.1971,0.1975,0.1978,0.2064,0.2001,0.2002,0.2002,0.2085,0.2087,0.2089,0,0,0,0,0,0,0.1832,0.1835,0.1865,0.1855,0.186,0.1893,0.1897,0.1902,0.1945,0.1942,0.1949,0.197,0.1972,0.1977,0.2018,0.2062,0.2002,0.2003,0.2083,0.2086,0.2088,0.2164,0,0,0,0,0,0,0.183,0.1834,0.1857,0.1855,0.1861,0.1891,0.1896,0.1902,0.1945,0.1951,0.1978,0.1983,0.1974,0.2017,0.2019,0.2062,0.2004,0.2081,0.2084,0.2087,0.2159,0.2169,0.2177,0,0,0,0,0,0.1829,0.1845,0.1858,0.1863,0.1884,0.1892,0.1897,0.1923,0.1946,0.1966,0.1991,0.1984,0.2039,0.2019,0.2021,0.2065,0.2079,0.2083,0.2087,0.2156,0.2167,0.2177,0,0,0,0,0,0,0.1841,0.1851,0.1866,0.1887,0.1902,0.1902,0.193,0.1945,0.1979,0.2,0.1999,0.2005,0.2058,0.205,0.2027,0.21,0.2061,0.2065,0.2112,0.2123,0.2132,0.2144,0.2004,0,0,0,0,0,0.1853,0.1872,0.1879,0.1902,0.1913,0.1931,0.1948,0.1963,0.1982,0.2001,0.2019,0.2043,0.2067,0.2087,0.2099,0.2135,0.2143,0.2167,0.2176,0.2184,0.2196,0.2244,0.2258,0.2102,0.2102,0.2102,0,0,0.1865,0.1876,0.1889,0.1908,0.1925,0.194,0.1945,0.1979,0.2006,0.2,0.2056,0.2074,0.2084,0.2127,0.2151,0.2132,0.2234,0.2189,0.2195,0.2203,0.2249,0.2265,0.2278,0.2105,0.2104,0.2104,0,0,0.1881,0.191,0.1926,0.194,0.1971,0.1978,0.1997,0.2018,0.2051,0.2093,0.2105,0.2154,0.218,0.2202,0.2214,0.2279,0.2278,0.2289,0.2347,0.2394,0.2407,0.2419,0.2456,0.2471,0.2295,0.2295,0.2295,0,0.1902,0.1912,0.1934,0.1949,0.1964,0.1999,0.2013,0.2048,0.2084,0.2118,0.2125,0.2201,0.2217,0.2275,0.2309,0.2302,0.2325,0.2305,0.2406,0.2418,0.2429,0.2464,0.2479,0.2299,0.2299,0.2298,0.2298,0,0.1909,0.1934,0.1948,0.1976,0.1999,0.2019,0.2056,0.2102,0.2148,0.2181,0.2262,0.2287,0.2337,0.2353,0.2357,0.2445,0.2436,0.241,0.2379,0.2449,0.2482,0.2496,0.2305,0.2304,0.2302,0.2301,0,0,0.1902,0.1943,0.1952,0.1964,0.2012,0.2022,0.2089,0.2144,0.2201,0.2262,0.233,0.2399,0.2437,0.2455,0.247,0.2518,0.2624,0.2512,0.2512,0.2549,0.2734,0.255,0.2547,0.2621,0.2624,0.2626,0.2729,0,0.1902,0.1923,0.195,0.1981,0.1988,0.2045,0.2097,0.2165,0.2236,0.2315,0.2384,0.2456,0.2468,0.2511,0.2567,0.2616,0.2665,0.2599,0.266,0.2662,0.249,0.2558,0.2635,0.2739,0.2742,0.2745,0.2746,0,0.1887,0.1902,0.1926,0.1972,0.1985,0.2023,0.2113,0.217,0.2298,0.236,0.246,0.2513,0.263,0.2608,0.2744,0.2708,0.2738,0.2758,0.2762,0.2572,0.2503,0.2653,0.2772,0.277,0.2768,0.2766,0.2765,0,0.1836,0.1882,0.19,0.1913,0.1977,0.2022,0.208,0.2197,0.2264,0.2412,0.2479,0.2602,0.2693,0.2753,0.2828,0.2806,0.2944,0.2907,0.2763,0.275,0.2852,0.2838,0.2984,0.2983,0.2983,0.2983,0.2983,0,0.179,0.1809,0.1888,0.189,0.1935,0.2004,0.2091,0.2168,0.2302,0.2383,0.2515,0.2591,0.2741,0.2831,0.2862,0.2864,0.2981,0.2787,0.2767,0.2882,0.287,0.2863,0.2847,0.2987,0.2986,0.2985,0.2984,0,0.1711,0.1767,0.1788,0.187,0.1907,0.1947,0.2088,0.2141,0.2294,0.2403,0.2458,0.2643,0.2765,0.2859,0.2974,0.2901,0.2912,0.2872,0.3008,0.2991,0.2681,0.2668,0.2726,0.2721,0.2716,0.2712,0.2709,0,0.1664,0.1666,0.1758,0.1784,0.1826,0.1916,0.1968,0.2123,0.2187,0.2406,0.2435,0.2621,0.2719,0.2749,0.2857,0.2885,0.2846,0.2825,0.2736,0.2681,0.2657,0.2652,0.2646,0.2701,0.27,0.2699,0.2697,0,0.156,0.1614,0.1631,0.1684,0.1742,0.1794,0.1895,0.1933,0.2109,0.2269,0.2367,0.2434,0.2564,0.2656,0.2696,0.2705,0.2823,0.2775,0.2784,0.27,0.2651,0.2631,0.2631,0.2681,0.2683,0.2685,0.2686,0,0.1491,0.1483,0.1525,0.1557,0.1619,0.1633,0.1716,0.1798,0.189,0.2132,0.2171,0.2361,0.2549,0.2564,0.26,0.2597,0.2555,0.2455,0.248,0.2499,0.2372,0.2275,0.2183,0,0,0,0,0,0.1413,0.1387,0.1393,0.1408,0.1458,0.1509,0.1631,0.1725,0.1917,0.1925,0.2044,0.2147,0.2233,0.2348,0.23,0.2481,0.2548,0.2411,0.2439,0.2589,0.2608,0.2478,0,0,0,0,0,0,0.1354,0.136,0.134,0.1272,0.1269,0.131,0.1393,0.1526,0.1561,0.1775,0.1851,0.2005,0.2138,0.2242,0.2259,0.2285,0.2253,0.2536,0.253,0.2579,0.2596,0.2611,0.2483,0,0,0,0,0]},{"header":{"parameterUnit":"m.s-1","parameterCategory":2,"la1":30.2991,"la2":30.254,"lo1":-89.0895,"lo2":-89.0444,"dy":0.0017,"dx":0.0017,"nx":28,"ny":28,"refTime":"2024-07-20T03:00:00:Z","depth":"4","parameterNumber":3,"parameterNumberName":"V-component_of_CURRENTS"},"data":[0,0,0,0,0,0,0,0,0,0,0,0,0,0,0,0,0,0,0,0,0,0,0,0,0,0,0,0,0,0,0,0,0,0,0,0,0,0,0,0,0,0,0,0,0,0,0,0,0,0,0,0,0,0,0,0,0,0,0.0059,0.0058,0,0.0031,0.003,0.003,0.0011,0.0011,0.0011,0.0011,-0.0021,-0.0022,-0.0023,0,0,0,0,0,0,0,0,0,0,0,0,0,0.0078,0.0078,0.0059,0.0058,0.0058,0.0031,0.003,0.003,0.0011,0.0011,0.0011,0.0011,-0.0021,-0.0022,-0.0023,0,0,0,0,0,0,0,0,0,0,0,0,0,0.0061,0.0078,0.0059,0.0046,0.0045,0.0031,0.003,0.003,0.0011,0.0011,0.0011,0.0011,-0.0021,-0.0022,-0.0023,-0.0028,0,0,-0.0026,-0.0027,0,0,0,0,0,0,0,0,0.0062,0.006,0.0048,0.0047,0.0045,0.0025,0.0025,0.001,0.0011,0.0023,0.0011,0.0011,-0.0006,-0.0008,-0.0014,-0.0029,-0.0031,-0.0027,-0.0027,-0.0028,-0.0028,0,0,0,0,0,0,0,0.0063,0.0061,0.0047,0.0048,0.0046,0.0035,0.0033,0.0022,0.0009,0.0022,0.0021,0.0019,-0.0007,-0.0013,-0.0015,-0.0031,-0.0027,-0.0028,-0.0028,-0.0029,-0.0037,-0.0036,0,0,0,0,0,0,0.0069,0.0063,0.0048,0.0046,0.0054,0.0035,0.0032,0.0031,0.001,0.0006,0.0019,0.0018,-0.0011,-0.0013,-0.0016,-0.0001,-0.0028,-0.0029,-0.003,-0.0037,-0.0037,-0.0036,0,0,0,0,0,0,0.0069,0.0068,0.0049,0.0054,0.0051,0.0035,0.0034,0.0031,0.0027,0.0007,0.0004,0.0019,-0.0011,-0.0014,-0.0015,-0.0003,-0.0029,-0.003,-0.0038,-0.0037,-0.0036,0.0015,0,0,0,0,0,0,0.007,0.0068,0.007,0.0055,0.0051,0.0048,0.0034,0.003,0.0026,0.0025,0.0006,0.0003,-0.0011,-0.0013,-0.0016,-0.0005,-0.0031,-0.0038,-0.0037,-0.0037,0.0012,0.0017,0.0021,0,0,0,0,0,0.0071,0.0075,0.0071,0.0069,0.0054,0.0049,0.0046,0.0034,0.0026,0.0029,0.002,0.0004,-0.0009,-0.0013,-0.0017,-0.0007,-0.0039,-0.0038,-0.0037,0.001,0.0016,0.0021,0,0,0,0,0,0,0.0082,0.0073,0.0068,0.0069,0.0063,0.0046,0.0046,0.0038,0.0031,0.003,0.0011,0.0008,0.0009,-0.0005,-0.0009,-0.0007,-0.0027,-0.0027,0.0009,0.0015,0.0019,0.0034,-0.0032,0,0,0,0,0,0.0086,0.009,0.0078,0.0079,0.0077,0.0063,0.0059,0.0051,0.0042,0.0039,0.0028,0.0016,0.001,0.0008,-0.0003,0.0001,-0.0028,0.0004,0.0008,0.0012,0.0022,-0.0012,-0.001,-0.0032,-0.0032,-0.0032,0,0,0.009,0.0087,0.0088,0.0083,0.0075,0.0085,0.006,0.0058,0.0071,0.0037,0.005,0.003,0.0014,0.0018,0.0018,0.0009,0.0001,0.0014,0.0017,0.0025,-0.0011,-0.0009,-0.0007,-0.0032,-0.0032,-0.0032,0,0,0.0104,0.0097,0.0107,0.0108,0.0103,0.0099,0.0102,0.0089,0.0089,0.0095,0.0076,0.0065,0.0056,0.0048,0.0043,0.0064,0.0023,0.0058,0.0096,0.0063,0.0064,0.0065,0.0021,0.0018,0.0063,0.0063,0.0063,0,0.011,0.0125,0.0109,0.0123,0.0135,0.0111,0.0133,0.0129,0.012,0.0126,0.0108,0.0091,0.0072,0.0081,0.0089,0.0075,0.0044,0.0079,0.0068,0.0069,0.0069,0.0023,0.0019,0.0066,0.0065,0.0065,0.0065,0,0.0135,0.0151,0.0158,0.0175,0.0182,0.0195,0.0193,0.02,0.0194,0.0186,0.0185,0.0153,0.0145,0.0133,0.012,0.0118,0.0091,0.0075,0.0056,0.0074,0.0025,0.0019,0.0069,0.0069,0.0068,0.0067,0,0,0.0145,0.0172,0.0177,0.0207,0.0216,0.0231,0.0253,0.0271,0.0294,0.0264,0.0282,0.0257,0.0227,0.0219,0.0189,0.016,0.0128,0.0125,0.0122,0.0082,0.0044,0.003,0.0022,0.0108,0.0108,0.0108,0.0005,0,0.0175,0.0222,0.0227,0.0285,0.0313,0.0314,0.0345,0.0355,0.0351,0.0358,0.0311,0.0313,0.0264,0.0261,0.0222,0.0157,0.0118,0.0157,0.0031,0.0027,0.0014,0.0018,0.0107,0.0,-0.0001,-0.0002,-0.0003,0,0.0204,0.0238,0.0297,0.0361,0.0375,0.0407,0.046,0.0486,0.0481,0.0474,0.0447,0.0403,0.0362,0.0314,0.0201,0.0227,0.0144,0.0081,0.0075,0.0045,0.0005,-0.0021,-0.0013,-0.0012,-0.0012,-0.0011,-0.001,0,0.0232,0.0293,0.0352,0.0371,0.0429,0.0466,0.0502,0.0521,0.0562,0.0547,0.0554,0.0482,0.0457,0.0343,0.0203,0.0205,0.0061,0.0047,-0.005,-0.0053,-0.0033,-0.0033,-0.0038,-0.0038,-0.0037,-0.0037,-0.0037,0,0.0268,0.0317,0.0376,0.0409,0.0502,0.052,0.0607,0.0625,0.0652,0.0698,0.062,0.0618,0.0464,0.0358,0.0221,0.0065,0.007,-0.0041,-0.0075,-0.0011,-0.0007,-0.0038,-0.0037,-0.0041,-0.004,-0.0039,-0.0039,0,0.0292,0.0323,0.0403,0.0481,0.0518,0.0588,0.0694,0.0746,0.076,0.0811,0.081,0.0726,0.059,0.0411,0.0222,0.0105,-0.0053,-0.0115,-0.0043,-0.0072,-0.0151,-0.0146,-0.0217,-0.0218,-0.0219,-0.022,-0.0221,0,0.0306,0.0347,0.0461,0.0525,0.0569,0.0675,0.0747,0.0801,0.0857,0.0873,0.0894,0.0784,0.0699,0.0421,0.0225,-0.0048,-0.0086,-0.0177,-0.0152,-0.0141,-0.0167,-0.016,-0.0154,-0.0222,-0.0223,-0.0223,-0.0223,0,0.0344,0.0384,0.0456,0.0581,0.0675,0.0791,0.0892,0.094,0.0993,0.0999,0.097,0.0824,0.0665,0.0438,0.0217,0.0022,-0.012,-0.0188,-0.0187,-0.0164,-0.0149,-0.0172,-0.0165,-0.0227,-0.0226,-0.0226,-0.0226,0,0.0378,0.0435,0.0527,0.0643,0.0759,0.087,0.0927,0.0991,0.1049,0.1053,0.1037,0.0859,0.0761,0.0472,0.0268,0.0074,0.0033,-0.0028,-0.0035,-0.0034,0.0046,0.0094,0.0066,0,0,0,0,0,0.0412,0.0478,0.0581,0.0706,0.0815,0.089,0.1007,0.1049,0.1087,0.1081,0.1068,0.0917,0.0633,0.0508,0.0315,0.0237,-0.0015,0.0002,-0.0092,-0.0247,-0.0243,-0.0181,0,0,0,0,0,0,0.0438,0.0534,0.0582,0.0732,0.0819,0.0951,0.1029,0.1062,0.1066,0.1067,0.0923,0.0858,0.0582,0.0739,0.0306,0.0246,0.0159,-0.0129,-0.0134,-0.0249,-0.0245,-0.0242,-0.0177,0,0,0,0,0]}]]